Regional Weather Roundup
Issued by NWS

Home | Current Version | Previous Version | Text Only | Print | Product List | Glossary On
Versions: 1 2 3 4 5 6 7 8 9 10 11 12 13 14 15 16 17 18 19 20 21 22 23 24 25 26 27 28 29 30 31 32 33 34 35 36 37 38 39 40 41 42 43 44 45 46 47 48 49 50
000
ASUS43 KFSD 310910
RWRSD

WEATHER ROUNDUP FOR SOUTH DAKOTA
NATIONAL WEATHER SERVICE SIOUX FALLS SD
400 AM CDT FRI JUL 31 2015

NOTE: "FAIR" INDICATES FEW OR NO CLOUDS BELOW 12,000 FEET WITH NO
SIGNIFICANT WEATHER AND/OR OBSTRUCTIONS TO VISIBILITY.


SDZ001>005-009-010-012>017-311000-
NORTHWEST AND NORTH CENTRAL SOUTH DAKOTA

CITY           SKY/WX    TMP DP  RH WIND       PRES   REMARKS
BUFFALO          N/A     65  46  50 CALM      30.17S
FAITH            N/A     61  50  67 S12       30.19S
MOBRIDGE       CLEAR     56  53  90 N3        30.15S
$$

SDZ012>016-024>037-041>051-057-063-072>074-311000-
SOUTHWEST AND SOUTH CENTRAL SOUTH DAKOTA

CITY           SKY/WX    TMP DP  RH WIND       PRES   REMARKS
RAPID CTY ARPT CLEAR     59  49  69 CALM      30.23S
PIERRE         CLEAR     60  53  77 CALM      30.14S
CUSTER         CLEAR     52  42  69 NW5       30.37S
ELLSWORTH AFB  CLEAR     65  48  55 CALM      30.22F
PHILIP         CLEAR     58  53  84 N5        30.17F
PINE RIDGE     CLEAR     55  49  80 CALM      30.22S
SPEARFISH      FAIR      57  45  62 W5        30.28S
WINNER         FAIR      68  52  56 NE3       30.16S
$$

SDZ004>011-016>023-039-040-311000-
NORTHEAST SOUTH DAKOTA

CITY           SKY/WX    TMP DP  RH WIND       PRES   REMARKS
ABERDEEN       CLEAR     55  51  86 SW3       30.14S
WATERTOWN      CLEAR     60  53  77 N3        30.14S
BROOKINGS      CLEAR     63  55  77 CALM      30.16S
SISSETON         N/A     59  52  77 W5        30.10S
$$

SDZ017-020-022-023-036>040-048>070-311000-
SOUTHEAST SOUTH DAKOTA

CITY           SKY/WX    TMP DP  RH WIND       PRES   REMARKS
SIOUX FALLS    CLEAR     61  58  90 CALM      30.13F
HURON          CLEAR     61  59  93 CALM      30.12S
CHAMBERLAIN    CLEAR     65  56  73 E5        30.15S
MITCHELL       CLEAR     65  60  84 CALM      30.13F
YANKTON          N/A    N/A N/A N/A MISG        N/A
$$

ABBREVIATIONS USED IN REMARKS
   TC - TEMPERATURE IN CELSIUS
  WCI - WIND CHILL INDEX
   HX - HEAT INDEX
  VSB - VISIBILITY




USA.gov is the U.S. government's official web portal to all federal, state and local government web resources and services.